Regional Weather Roundup
Issued by NWS

Home | Current Version | Previous Version | Graphics & Text | Print | Product List | Glossary On
Versions: 1 2 3 4 5 6 7 8 9 10 11 12 13 14 15 16 17 18 19 20 21 22 23 24 25 26 27 28 29 30 31 32 33 34 35 36 37 38 39 40 41 42 43 44 45 46 47 48 49 50
000
ASUS43 KLOT 230304
RWRIL

ILLINOIS REGIONAL WEATHER ROUNDUP
NATIONAL WEATHER SERVICE CHICAGO/ROMEOVILLE IL
1000 PM CDT MON MAY 22 2017

NOTE: "FAIR" INDICATES FEW OR NO CLOUDS BELOW 12,000 FEET WITH NO
SIGNIFICANT WEATHER AND/OR OBSTRUCTIONS TO VISIBILITY.

* THESE STATIONS ARE NOT UNDER NWS QUALITY CONTROL. THEY ALSO MAY NOT
  REPORT WEATHER SUCH AS PRECIPITATION OR FOG.

ILZ001-002-007-009-015-016-024-230400-
NORTHWEST ILLINOIS

CITY           SKY/WX    TMP DP  RH WIND       PRES   REMARKS
MOLINE         CLOUDY    60  54  80 SW10      29.88S
STERLING*      CLOUDY    59  55  87 VRB3      29.90S
$$

ILZ003-004-008-010-011-017-018-230400-
NORTH CENTRAL ILLINOIS

CITY           SKY/WX    TMP DP  RH WIND       PRES   REMARKS
ROCKFORD       PTCLDY    59  54  83 S13       29.90R
FREEPORT*      PTCLDY    56  54  90 S14       29.90S
ROCHELLE*      CLOUDY    57  55  91 S12       29.91S
DE KALB*       CLOUDY    58  55  90 SW10      29.92S
$$

ILZ005-006-012>014-019>023-230400-
NORTHEAST ILLINOIS

CITY           SKY/WX    TMP DP  RH WIND       PRES   REMARKS
CHICAGO-OHARE  CLOUDY    61  53  75 SW15G22   29.91S
CHICAGO-MIDWAY LGT RAIN  60  55  83 SW13      29.93R
AURORA         CLOUDY    60  56  86 S12       29.92F
LANSING*       CLOUDY    62  52  69 W14       29.94S
WAUKEGAN       CLOUDY    61  54  77 SW18G25   29.88R
DUPAGE AIRPORT CLOUDY    59  56  89 SW14      29.91F
WHEELING       CLOUDY    62  54  74 SW14      29.92S
MORRIS*        CLOUDY    58  56  91 CALM      29.93F
ROMEOVILLE*    CLOUDY    58  57  96 SW13      29.93F
NORTHERLY ISL    N/A     61  52  72 SW8         N/A
$$

LMZ740>746-230400-
SOUTHERN LAKE MICHIGAN

STATION/POSITION SKY/WX   TEMP    WIND        PRES    VSBY  WAVE
                          AIR SEA DIR/SP/G                  HT/PER
                          (F)     (DEG/KT/KT) (MB)    (MI)  (FT/S)
SOUTHERN BUOY              51 45  220/ 12/ 14 1012.2          1
WILMETTE HARBOR            61 54                N/A           2/ 2
HARRISON CRIB              63     220/ 26/ 32   N/A
BURNHAM HARBOR             61     170/  8/ 15   N/A
CALUMET HARBOR             63     200/ 12/ 20 1013.0F
BURNS HARBOR               64     230/ 11/ 15 1014.2S
MICHIGAN CITY              64     210/ 18/ 21   N/A
MICHIGAN CITY 6N           59 53  240/ 12/ 14   N/A           2/ 3
ST. JOSEPH                 59 54  240/ 14/ 17 1013.8R         3/ 3
$$

ILZ025>027-034>036-040-047-049-050-058-095>099-230400-
WEST-CENTRAL ILLINOIS

CITY           SKY/WX    TMP DP  RH WIND       PRES   REMARKS
QUINCY         LGT RAIN  58  56  93 CALM      29.96S
GALESBURG*     CLOUDY    58  55  90 S10       29.91F
MACOMB*        LGT RAIN  58  56  93 SW10      29.96F
$$

ILZ028>032-037-038-041>044-048-051>054-059>061-230400-
CENTRAL ILLINOIS

CITY           SKY/WX    TMP DP  RH WIND       PRES   REMARKS
BLOOMINGTON    CLOUDY    58  56  93 S8        29.96F
DECATUR        CLOUDY    57  55  93 NE3       29.97S
PEORIA         CLOUDY    58  57  97 SW6       29.95S
LACON*         RAIN      58  56  94 S8        29.93F
LINCOLN*       CLOUDY    60  60  99 CALM      29.96R
SPRINGFIELD    CLOUDY    60  60 100 SE5       29.96S
TAYLORVILLE    NOT AVBL
$$

ILZ033-039-045-046-055>057-062-063-230400-
EAST-CENTRAL ILLINOIS

CITY           SKY/WX    TMP DP  RH WIND       PRES   REMARKS
CHAMPAIGN      LGT RAIN  61  54  77 NW6       29.97F
MATTOON        PTCLDY    58  52  80 SE5       29.96F
$$

ILZ079-100>102-230400-
SOUTHWEST ILLINOIS

CITY           SKY/WX    TMP DP  RH WIND       PRES   REMARKS
ALTON          MOCLDY    64  52  63 CALM      29.96R
BELLEVILLE     PTCLDY    63  50  63 S3        29.96S
CAHOKIA*       PTCLDY    66  48  52 S5        29.94S
SPARTA*        CLEAR     62  56  82 CALM      29.96F
$$

ILZ064>066-069>071-074>076-080>082-084>086-088>090-092>094-230400-
SOUTH-CENTRAL ILLINOIS

CITY           SKY/WX    TMP DP  RH WIND       PRES   REMARKS
CARBONDALE     CLEAR     61  58  90 CALM      29.95F
CAIRO*         CLOUDY    67  54  62 E6        29.95F
EFFINGHAM*     PTCLDY    60  58  94 CALM      29.98S
MARION         CLOUDY    61  59  94 CALM      29.97S
MT. VERNON       N/A     57  56  96 CALM      29.96F
CENTRALIA*     CLEAR     62  58  87 SE3       29.95F
SALEM*         CLEAR     64  52  64 E3        29.96F
$$

ILZ067-068-072-073-078-083-087-091-230400-
SOUTHEAST ILLINOIS

CITY           SKY/WX    TMP DP  RH WIND       PRES   REMARKS
LAWRENCEVILLE  CLOUDY    65  50  58 S8        29.98F
FLORA*         CLOUDY    64  56  76 CALM      29.97F
FAIRFIELD*     CLOUDY    63  53  71 CALM      29.96S
HARRISBURG*    CLOUDY    63  54  71 CALM      29.97S
ROBINSON*      CLOUDY    60  52  75 CALM      29.99S
CARMI*         PTCLDY    62  54  74 E6        29.97S
$$

ABBREVIATIONS USED IN REMARKS
   TC - TEMPERATURE IN CELSIUS
  WCI - WIND CHILL INDEX
   HX - HEAT INDEX
  VSB - VISIBILITY
$$





USA.gov is the U.S. government's official web portal to all federal, state and local government web resources and services.